Weather History for Franklin, NC

Change the Weather History Date:

Wednesday, November 21, 2012

  Actual Average (KTOC) Record (KTOC)
Temperature  
Mean Temperature 46 °F -  
Max Temperature 64 °F 58 °F 52 °F (2013)
Min Temperature 28 °F 39 °F 47 °F (2013)
Degree Days  
Heating Degree Days 19    
Moisture  
Dew Point 33 °F    
Average Humidity 74    
Maximum Humidity 100    
Minimum Humidity 32    
Precipitation  
Precipitation 0.00 in - - ()
Sea Level Pressure  
Sea Level Pressure 30.16 in    
Wind  
Wind Speed 1 mph (NW)    
Max Wind Speed 8 mph    
Max Gust Speed -    
Visibility 10 miles    
Events      
Averages and records for this station are not official NWS values.
T = Trace of Precipitation, MM = Missing Value Source: NWS Daily Summary

Daily Weather History Graph

Daily Weather History Graph

Search for Another Location

Airport:

Trip Planner

Search our weather history database for the weather conditions in past years. The results will help you decide how hot, cold, wet, or windy it might be!

Date:

Astronomy

Nov. 21, 2012 Rise Set
Actual Time 7:14 AM EST 5:24 PM EST
Civil Twilight 6:47 AM EST 5:51 PM EST
Nautical Twilight 6:16 AM EST 6:22 PM EST
Astronomical Twilight 5:46 AM EST 6:52 PM EST
Moon 1:27 PM EST (11/21) 12:46 AM EST (11/21)
Length of Visible Light 11h 03m
Length of Day
10h 09m
First Quarter, 61% of the Moon is Illuminated
Nov 21
First Quarter
Nov 28
Full
Dec 6
Last Quarter
Dec 13
New
Dec 20
First Quarter

Hourly Weather History & Observations

Time (EST) Temp. Windchill Dew Point Humidity Pressure Visibility Wind Dir Wind Speed Gust Speed Precip Events Conditions
12:15 AM 33.8 °F - 32.0 °F 93% 30.13 in 10.0 mi Calm Calm - N/A   Clear
12:35 AM 32.0 °F - 32.0 °F 100% 30.13 in 10.0 mi Calm Calm - N/A   Clear
12:55 AM 32.0 °F - 32.0 °F 100% 30.13 in 10.0 mi Calm Calm - N/A   Scattered Clouds
1:15 AM 32.0 °F - 30.2 °F 93% 30.13 in 10.0 mi Calm Calm - N/A   Scattered Clouds
1:35 AM 32.0 °F - 30.2 °F 93% 30.13 in 10.0 mi Calm Calm - N/A   Clear
1:55 AM 32.0 °F - 32.0 °F 100% 30.12 in 10.0 mi Calm Calm - N/A   Clear
2:15 AM 32.0 °F - 30.2 °F 93% 30.12 in 10.0 mi Calm Calm - N/A   Clear
2:35 AM 32.0 °F - 32.0 °F 100% 30.12 in 10.0 mi Calm Calm - N/A   Clear
2:55 AM 32.0 °F - 30.2 °F 93% 30.13 in 10.0 mi Calm Calm - N/A   Clear
3:15 AM 32.0 °F - 30.2 °F 93% 30.13 in 10.0 mi Calm Calm - N/A   Clear
3:35 AM 30.2 °F - 30.2 °F 100% 30.13 in 10.0 mi Calm Calm - N/A   Clear
3:55 AM 30.2 °F - 30.2 °F 100% 30.13 in 10.0 mi Calm Calm - N/A   Clear
4:15 AM 30.2 °F - 30.2 °F 100% 30.13 in 10.0 mi Calm Calm - N/A   Clear
4:35 AM 32.0 °F - 30.2 °F 93% 30.13 in 10.0 mi Calm Calm - N/A   Clear
4:55 AM 30.2 °F - 30.2 °F 100% 30.14 in 10.0 mi Calm Calm - N/A   Clear
5:15 AM 30.2 °F - 30.2 °F 100% 30.13 in 10.0 mi Calm Calm - N/A   Clear
5:35 AM 30.2 °F - 30.2 °F 100% 30.14 in 10.0 mi Calm Calm - N/A   Clear
5:55 AM 30.2 °F - 30.2 °F 100% 30.15 in 10.0 mi Calm Calm - N/A   Clear
6:15 AM 30.2 °F - 30.2 °F 100% 30.15 in 10.0 mi Calm Calm - N/A   Clear
6:35 AM 30.2 °F - 30.2 °F 100% 30.16 in 10.0 mi Calm Calm - N/A   Clear
7:15 AM 28.4 °F - 28.4 °F 100% 30.18 in 10.0 mi Calm Calm - N/A   Clear
7:35 AM 28.4 °F - 28.4 °F 100% 30.18 in 10.0 mi Calm Calm - N/A   Clear
7:55 AM 28.4 °F - 28.4 °F 100% 30.18 in 10.0 mi Calm Calm - N/A   Clear
8:15 AM 32.0 °F - 30.2 °F 93% 30.19 in 10.0 mi Calm Calm - N/A   Clear
8:35 AM 32.0 °F - 32.0 °F 100% 30.19 in 10.0 mi Calm Calm - N/A   Clear
8:55 AM 35.6 °F - 33.8 °F 93% 30.20 in 10.0 mi Calm Calm - N/A   Clear
9:15 AM 37.4 °F - 33.8 °F 87% 30.19 in 10.0 mi Calm Calm - N/A   Clear
9:35 AM 41.0 °F - 35.6 °F 81% 30.19 in 10.0 mi Calm Calm - N/A   Clear
9:55 AM 44.6 °F - 35.6 °F 71% 30.20 in 10.0 mi Calm Calm - N/A   Clear
10:15 AM 46.4 °F - 35.6 °F 66% 30.20 in 10.0 mi Calm Calm - N/A   Clear
10:35 AM 50.0 °F - 35.6 °F 58% 30.19 in 10.0 mi Calm Calm - N/A   Clear
10:55 AM 51.8 °F - 35.6 °F 54% 30.18 in 10.0 mi Calm Calm - N/A   Clear
11:15 AM 53.6 °F - 35.6 °F 51% 30.18 in 10.0 mi Calm Calm - N/A   Clear
11:35 AM 57.2 °F - 37.4 °F 48% 30.17 in 10.0 mi Calm Calm - N/A   Clear
11:55 AM 59.0 °F - 35.6 °F 42% 30.16 in 10.0 mi Calm Calm - N/A   Clear
12:15 PM 60.8 °F - 35.6 °F 39% 30.15 in 10.0 mi Calm Calm - N/A   Clear
12:35 PM 62.6 °F - 35.6 °F 37% 30.15 in 10.0 mi Calm Calm - N/A   Clear
12:55 PM 62.6 °F - 35.6 °F 37% 30.14 in 10.0 mi Calm Calm - N/A   Clear
1:15 PM 62.6 °F - 35.6 °F 37% 30.13 in 10.0 mi WSW 6.9 mph - N/A   Clear
1:35 PM 62.6 °F - 33.8 °F 34% 30.13 in 10.0 mi Calm Calm - N/A   Clear
1:55 PM 64.4 °F - 33.8 °F 32% 30.12 in 10.0 mi Calm Calm - N/A   Clear
2:15 PM 64.4 °F - 35.6 °F 34% 30.12 in 10.0 mi WNW 6.9 mph - N/A   Scattered Clouds
2:35 PM 64.4 °F - 33.8 °F 32% 30.11 in 10.0 mi WNW 5.8 mph - N/A   Mostly Cloudy
2:55 PM 64.4 °F - 33.8 °F 32% 30.11 in 10.0 mi ENE 8.1 mph - N/A   Overcast
3:15 PM 64.4 °F - 33.8 °F 32% 30.11 in 10.0 mi ENE 3.5 mph - N/A   Overcast
3:35 PM 64.4 °F - 33.8 °F 32% 30.11 in 10.0 mi ENE 6.9 mph - N/A   Overcast
3:55 PM 64.4 °F - 33.8 °F 32% 30.12 in 10.0 mi North 4.6 mph - N/A   Scattered Clouds
4:15 PM 62.6 °F - 32.0 °F 32% 30.12 in 10.0 mi WNW 6.9 mph - N/A   Scattered Clouds
4:35 PM 62.6 °F - 32.0 °F 32% 30.12 in 10.0 mi WNW 6.9 mph - N/A   Mostly Cloudy
4:55 PM 60.8 °F - 32.0 °F 34% 30.13 in 10.0 mi WNW 4.6 mph - N/A   Mostly Cloudy
5:15 PM 60.8 °F - 32.0 °F 34% 30.14 in 10.0 mi WNW 5.8 mph - N/A   Scattered Clouds
5:35 PM 57.2 °F - 32.0 °F 38% 30.15 in 10.0 mi WNW 3.5 mph - N/A   Clear
5:55 PM 50.0 °F - 35.6 °F 58% 30.15 in 10.0 mi Calm Calm - N/A   Clear
6:15 PM 44.6 °F - 35.6 °F 71% 30.16 in 10.0 mi Calm Calm - N/A   Clear
6:35 PM 42.8 °F - 35.6 °F 76% 30.17 in 10.0 mi Calm Calm - N/A   Clear
6:55 PM 42.8 °F - 35.6 °F 76% 30.18 in 10.0 mi Calm Calm - N/A   Clear
7:15 PM 42.8 °F - 33.8 °F 70% 30.18 in 10.0 mi Calm Calm - N/A   Clear
7:35 PM 41.0 °F 39.0 °F 33.8 °F 76% 30.19 in 10.0 mi WSW 3.5 mph - N/A   Clear
7:55 PM 41.0 °F - 33.8 °F 76% 30.19 in 10.0 mi Calm Calm - N/A   Clear
8:15 PM 37.4 °F - 33.8 °F 87% 30.20 in 10.0 mi Calm Calm - N/A   Clear
8:35 PM 39.2 °F - 33.8 °F 81% 30.20 in 10.0 mi Calm Calm - N/A   Clear
8:55 PM 37.4 °F - 32.0 °F 81% 30.20 in 10.0 mi Calm Calm - N/A   Clear
9:15 PM 35.6 °F - 32.0 °F 87% 30.20 in 10.0 mi Calm Calm - N/A   Clear
9:35 PM 35.6 °F - 32.0 °F 87% 30.21 in 10.0 mi Calm Calm - N/A   Clear
9:55 PM 33.8 °F - 32.0 °F 93% 30.20 in 10.0 mi Calm Calm - N/A   Clear
10:15 PM 33.8 °F - 32.0 °F 93% 30.21 in 10.0 mi Calm Calm - N/A   Clear
10:35 PM 33.8 °F - 32.0 °F 93% 30.21 in 10.0 mi Calm Calm - N/A   Clear
10:55 PM 32.0 °F - 32.0 °F 100% 30.21 in 10.0 mi Calm Calm - N/A   Clear
11:15 PM 32.0 °F - 30.2 °F 93% 30.21 in 10.0 mi Calm Calm - N/A   Clear
11:35 PM 32.0 °F - 32.0 °F 100% 30.21 in 10.0 mi Calm Calm - N/A   Clear
11:55 PM 32.0 °F - 30.2 °F 93% 30.21 in 10.0 mi Calm Calm - N/A   Clear